| time (UTC) | temp F | wind direction | speed knots | gust knots | rain 1hr in | rain 24hr in | rain mn in | humidity % | barometer mb |
| 20260504192007 | 77 | 115 | 7.0 | 15.6 | 0.00 | 0.21 | 0.12 | 81 | 1014.3 |
| 20260504191515 | 78 | 63 | 6.1 | 15.6 | 0.00 | 0.21 | 0.12 | 83 | 1014.2 |
| 20260504191007 | 78 | 63 | 8.7 | 13.9 | 0.00 | 0.21 | 0.12 | 83 | 1014.2 |
| 20260504190506 | 78 | 76 | 6.1 | 13.9 | 0.00 | 0.21 | 0.12 | 82 | 1014.3 |
| 20260504190019 | 78 | 14 | 7.8 | 13.9 | 0.00 | 0.21 | 0.12 | 83 | 1014.5 |
| 20260504185508 | 78 | 101 | 7.8 | 14.8 | 0.00 | 0.21 | 0.12 | 83 | 1014.6 |
| 20260504185015 | 78 | 55 | 7.8 | 15.6 | 0.00 | 0.21 | 0.12 | 84 | 1014.5 |
| 20260504184527 | 78 | 71 | 7.8 | 15.6 | 0.00 | 0.21 | 0.12 | 83 | 1014.6 |
| 20260504184007 | 79 | 74 | 7.8 | 13.9 | 0.00 | 0.21 | 0.12 | 82 | 1014.6 |
| 20260504183509 | 79 | 115 | 7.0 | 13.0 | 0.00 | 0.21 | 0.12 | 83 | 1014.7 |
| 20260504183008 | 78 | 62 | 6.1 | 13.9 | 0.01 | 0.21 | 0.12 | 85 | 1014.7 |
| 20260504182504 | 78 | 74 | 8.7 | 13.9 | 0.01 | 0.21 | 0.12 | 85 | 1014.7 |
| 20260504182003 | 77 | 39 | 8.7 | 14.8 | 0.01 | 0.21 | 0.12 | 86 | 1014.7 |
| 20260504181518 | 76 | 44 | 7.0 | 14.8 | 0.01 | 0.21 | 0.12 | 87 | 1015.0 |
| 20260504181009 | 76 | 59 | 7.0 | 13.0 | 0.01 | 0.21 | 0.12 | 89 | 1015.0 |
| 20260504180508 | 75 | 22 | 6.1 | 13.9 | 0.01 | 0.21 | 0.12 | 90 | 1014.9 |
| 20260504180016 | 75 | 36 | 7.8 | 13.9 | 0.01 | 0.21 | 0.12 | 89 | 1015.1 |
| 20260504175506 | 75 | 28 | 6.1 | 11.3 | 0.01 | 0.21 | 0.12 | 90 | 1015.1 |
| 20260504175006 | 75 | 35 | 4.3 | 10.4 | 0.01 | 0.21 | 0.12 | 90 | 1015.2 |
| 20260504174520 | 75 | 22 | 2.6 | 13.0 | 0.01 | 0.21 | 0.12 | 90 | 1015.4 |
| 20260504174008 | 75 | 22 | 7.0 | 15.6 | 0.01 | 0.21 | 0.12 | 89 | 1015.4 |
| 20260504173506 | 75 | 20 | 6.1 | 15.6 | 0.02 | 0.21 | 0.12 | 88 | 1015.4 |
| 20260504173023 | 76 | 44 | 8.7 | 15.6 | 0.06 | 0.20 | 0.11 | 86 | 1015.3 |
| 20260504172508 | 77 | 29 | 8.7 | 14.8 | 0.07 | 0.20 | 0.11 | 84 | 1015.2 |
| 20260504172010 | 78 | 28 | 5.2 | 10.4 | 0.07 | 0.20 | 0.11 | 84 | 1015.1 |
| 20260504171511 | 78 | 104 | 5.2 | 10.4 | 0.07 | 0.20 | 0.11 | 85 | 1015.2 |
| 20260504171004 | 78 | 60 | 4.3 | 9.6 | 0.07 | 0.20 | 0.11 | 86 | 1015.1 |
| 20260504170505 | 77 | 84 | 4.3 | 9.6 | 0.07 | 0.20 | 0.11 | 88 | 1015.2 |
| 20260504151006 | 79 | 42 | 5.2 | 13.0 | 0.00 | 0.13 | 0.04 | 81 | 1015.3 |
| 20260504150511 | 80 | 28 | 2.6 | 8.7 | 0.00 | 0.13 | 0.04 | 79 | 1015.3 |
| 20260504141007 | 78 | 38 | 1.7 | 7.8 | 0.00 | 0.13 | 0.04 | 84 | 1015.2 |
| 20260504140509 | 77 | 24 | 2.6 | 7.0 | 0.00 | 0.13 | 0.04 | 84 | 1015.1 |
| 20260504130513 | 75 | 343 | 0.9 | 4.3 | 0.00 | 0.13 | 0.04 | 92 | 1014.5 |
| 20260504110507 | 73 | 220 | 0.9 | 4.3 | 0.01 | 0.71 | 0.04 | 95 | 1013.6 |
| 20260504100507 | 73 | 292 | 0.0 | 6.1 | 0.00 | 0.70 | 0.03 | 95 | 1013.5 |
| 20260504081534 | 73 | 292 | 0.9 | 2.6 | 0.03 | 0.70 | 0.03 | 94 | 1012.6 |
| 20260504081011 | 73 | 292 | 0.9 | 1.7 | 0.03 | 0.70 | 0.03 | 94 | 1012.6 |
| 20260504080506 | 73 | 292 | 0.0 | 0.9 | 0.03 | 0.70 | 0.03 | 94 | 1012.3 |
| 20260504050509 | 74 | 96 | 0.0 | 0.0 | 0.00 | 0.67 | 0.00 | 93 | 1015.0 |
| 20260504045507 | 74 | 96 | 0.0 | 0.0 | 0.00 | 0.67 | 0.00 | 93 | 1015.1 |
| 20260504045010 | 74 | 96 | 0.0 | 0.0 | 0.00 | 0.67 | 0.00 | 93 | 1015.1 |
| 20260504044528 | 74 | 96 | 0.0 | 0.0 | 0.00 | 0.67 | 0.00 | 93 | 1015.0 |
| 20260504044010 | 74 | 96 | 0.0 | 0.0 | 0.00 | 0.67 | 0.00 | 93 | 1014.7 |
| 20260504043510 | 74 | 96 | 0.0 | 0.0 | 0.00 | 0.67 | 0.00 | 93 | 1014.6 |
| 20260504043026 | 74 | 96 | 0.0 | 0.0 | 0.00 | 0.67 | 0.00 | 93 | 1014.6 |
| 20260504042509 | 74 | 96 | 0.0 | 0.0 | 0.00 | 0.67 | 0.00 | 93 | 1014.6 |
| 20260504042009 | 74 | 96 | 0.0 | 0.0 | 0.00 | 0.67 | 0.00 | 93 | 1014.5 |
| 20260504041524 | 74 | 96 | 0.0 | 0.0 | 0.00 | 0.67 | 0.00 | 93 | 1014.5 |
| 20260504041008 | 75 | 96 | 0.0 | 0.0 | 0.00 | 0.67 | 0.00 | 94 | 1014.6 |
| 20260504040509 | 74 | 96 | 0.0 | 0.9 | 0.00 | 0.67 | 0.00 | 93 | 1014.8 |
| 20260504040027 | 74 | 96 | 0.0 | 1.7 | 0.00 | 0.67 | 0.00 | 93 | 1014.9 |
| 20260504035513 | 75 | 96 | 0.0 | 1.7 | 0.00 | 0.67 | 0.67 | 93 | 1014.9 |
| 20260504035008 | 74 | 96 | 0.0 | 0.0 | 0.00 | 0.67 | 0.67 | 93 | 1014.9 |
| 20260504034533 | 74 | 96 | 0.0 | 0.0 | 0.00 | 0.67 | 0.67 | 93 | 1014.9 |
| 20260504034009 | 74 | 96 | 0.0 | 0.0 | 0.00 | 0.67 | 0.67 | 93 | 1015.0 |
| 20260504033511 | 74 | 96 | 0.0 | 0.0 | 0.00 | 0.67 | 0.67 | 93 | 1015.0 |
| 20260504033045 | 74 | 96 | 0.0 | 0.0 | 0.00 | 0.67 | 0.67 | 93 | 1015.0 |
| 20260504032509 | 74 | 96 | 0.0 | 0.0 | 0.00 | 0.67 | 0.67 | 93 | 1015.1 |
| 20260504032011 | 74 | 96 | 0.0 | 0.0 | 0.00 | 0.67 | 0.67 | 93 | 1015.1 |
| 20260504031532 | 74 | 96 | 0.0 | 0.0 | 0.00 | 0.67 | 0.67 | 93 | 1015.1 |
| 20260504031010 | 74 | 96 | 0.0 | 0.0 | 0.00 | 0.67 | 0.67 | 93 | 1015.1 |
| 20260504030503 | 74 | 96 | 0.0 | 0.0 | 0.00 | 0.67 | 0.67 | 93 | 1015.1 |
| 20260504030005 | 74 | 96 | 0.0 | 0.0 | 0.00 | 0.67 | 0.67 | 93 | 1015.1 |
| 20260504025503 | 74 | 96 | 0.0 | 0.0 | 0.00 | 0.67 | 0.67 | 93 | 1015.2 |
| 20260504025003 | 74 | 96 | 0.0 | 0.0 | 0.00 | 0.67 | 0.67 | 93 | 1015.2 |
| 20260504024513 | 75 | 96 | 0.0 | 1.7 | 0.00 | 0.67 | 0.67 | 93 | 1015.1 |
| 20260504024005 | 74 | 96 | 0.0 | 1.7 | 0.00 | 0.67 | 0.67 | 93 | 1014.9 |
| 20260504023502 | 75 | 96 | 0.0 | 1.7 | 0.00 | 0.67 | 0.67 | 93 | 1015.0 |
| 20260504023006 | 75 | 96 | 0.0 | 1.7 | 0.00 | 0.67 | 0.67 | 93 | 1014.9 |
| 20260504022503 | 75 | 96 | 0.0 | 2.6 | 0.00 | 0.67 | 0.67 | 93 | 1014.9 |
| 20260504022007 | 75 | 96 | 0.0 | 2.6 | 0.00 | 0.67 | 0.67 | 93 | 1014.9 |
| 20260504021504 | 75 | 96 | 0.0 | 2.6 | 0.00 | 0.67 | 0.67 | 93 | 1014.8 |
| 20260504021003 | 75 | 96 | 0.0 | 3.5 | 0.00 | 0.67 | 0.67 | 93 | 1014.8 |
| 20260504020503 | 75 | 96 | 0.0 | 3.5 | 0.00 | 0.67 | 0.67 | 93 | 1014.8 |
| 20260504020011 | 75 | 96 | 0.0 | 1.7 | 0.00 | 0.67 | 0.67 | 93 | 1014.7 |
| 20260504015503 | 75 | 96 | 0.0 | 1.7 | 0.00 | 0.67 | 0.67 | 93 | 1014.8 |
| 20260504015003 | 75 | 96 | 0.0 | 1.7 | 0.00 | 0.67 | 0.67 | 93 | 1014.8 |
| 20260504014506 | 75 | 96 | 0.0 | 2.6 | 0.00 | 0.67 | 0.67 | 93 | 1014.7 |
| 20260504014007 | 75 | 96 | 0.0 | 2.6 | 0.00 | 0.67 | 0.67 | 93 | 1014.6 |
| 20260504013502 | 75 | 96 | 0.0 | 1.7 | 0.00 | 0.67 | 0.67 | 93 | 1014.7 |
| 20260504013003 | 75 | 96 | 0.0 | 2.6 | 0.00 | 0.67 | 0.67 | 93 | 1014.7 |
| 20260504012503 | 74 | 96 | 0.9 | 2.6 | 0.00 | 0.67 | 0.67 | 93 | 1014.7 |
| 20260504012003 | 75 | 96 | 0.9 | 3.5 | 0.00 | 0.67 | 0.67 | 93 | 1014.7 |
| 20260504011504 | 75 | 96 | 1.7 | 5.2 | 0.00 | 0.67 | 0.67 | 93 | 1014.7 |
| 20260504011003 | 75 | 96 | 1.7 | 5.2 | 0.00 | 0.67 | 0.67 | 93 | 1014.7 |
| 20260504010502 | 75 | 96 | 0.9 | 3.5 | 0.00 | 0.67 | 0.67 | 93 | 1014.7 |
| 20260504010004 | 75 | 96 | 0.9 | 2.6 | 0.00 | 0.67 | 0.67 | 92 | 1014.7 |
| 20260504005504 | 75 | 96 | 0.9 | 2.6 | 0.00 | 0.67 | 0.67 | 92 | 1014.9 |
| 20260504005002 | 75 | 96 | 0.0 | 2.6 | 0.00 | 0.67 | 0.67 | 92 | 1014.8 |
| 20260504004515 | 75 | 96 | 0.9 | 2.6 | 0.01 | 0.67 | 0.67 | 92 | 1014.7 |
| 20260504004003 | 75 | 96 | 0.0 | 2.6 | 0.09 | 0.67 | 0.67 | 92 | 1014.6 |
| 20260504003503 | 75 | 96 | 0.9 | 3.5 | 0.09 | 0.67 | 0.67 | 92 | 1014.5 |
| 20260504003004 | 75 | 96 | 0.9 | 3.5 | 0.09 | 0.67 | 0.67 | 92 | 1014.4 |
| 20260504002504 | 75 | 96 | 0.0 | 3.5 | 0.09 | 0.67 | 0.67 | 91 | 1014.5 |
| 20260504002002 | 75 | 96 | 0.9 | 5.2 | 0.09 | 0.67 | 0.67 | 91 | 1014.6 |
| 20260504001507 | 75 | 96 | 1.7 | 5.2 | 0.09 | 0.67 | 0.67 | 91 | 1014.6 |
| 20260504001007 | 75 | 104 | 0.0 | 3.5 | 0.09 | 0.67 | 0.67 | 90 | 1014.5 |
| 20260504000502 | 75 | 5 | 0.9 | 3.5 | 0.09 | 0.67 | 0.67 | 90 | 1014.4 |
| 20260504000008 | 75 | 10 | 0.9 | 4.3 | 0.09 | 0.67 | 0.67 | 89 | 1014.4 |
| 20260503235503 | 75 | 10 | 0.9 | 6.1 | 0.09 | 0.67 | 0.67 | 88 | 1014.3 |
| 20260503235003 | 76 | 14 | 2.6 | 7.8 | 0.09 | 0.67 | 0.67 | 87 | 1014.2 |
| 20260503234508 | 77 | 339 | 0.9 | 7.8 | 0.08 | 0.66 | 0.66 | 86 | 1014.2 |
| 20260503234003 | 77 | 19 | 2.6 | 7.8 | 0.00 | 0.58 | 0.58 | 84 | 1014.1 |
| 20260503233502 | 77 | 44 | 1.7 | 5.2 | 0.00 | 0.58 | 0.58 | 84 | 1014.0 |
| 20260503233008 | 77 | 53 | 0.0 | 7.8 | 0.00 | 0.58 | 0.58 | 84 | 1013.8 |
| 20260503232502 | 77 | 53 | 2.6 | 8.7 | 0.00 | 0.58 | 0.58 | 84 | 1013.8 |
| 20260503232004 | 77 | 38 | 3.5 | 8.7 | 0.00 | 0.58 | 0.58 | 84 | 1014.0 |
| 20260503231509 | 78 | 23 | 3.5 | 7.8 | 0.00 | 0.58 | 0.58 | 83 | 1014.0 |
| 20260503231007 | 78 | 22 | 1.7 | 7.0 | 0.00 | 0.58 | 0.58 | 84 | 1013.9 |
| 20260503230504 | 78 | 23 | 2.6 | 6.1 | 0.00 | 0.58 | 0.58 | 83 | 1013.8 |
| 20260503230012 | 79 | 5 | 0.9 | 4.3 | 0.00 | 0.58 | 0.58 | 83 | 1013.8 |
| 20260503225503 | 79 | 9 | 0.9 | 4.3 | 0.00 | 0.58 | 0.58 | 83 | 1013.6 |
| 20260503225003 | 79 | 9 | 0.9 | 2.6 | 0.00 | 0.58 | 0.58 | 83 | 1013.6 |
| 20260503224512 | 78 | 9 | 0.9 | 6.1 | 0.00 | 0.58 | 0.58 | 83 | 1013.7 |
| 20260503224008 | 78 | 9 | 0.9 | 6.1 | 0.00 | 0.58 | 0.58 | 84 | 1013.8 |
| 20260503223506 | 78 | 5 | 0.9 | 3.5 | 0.00 | 0.58 | 0.58 | 83 | 1013.8 |
| 20260503223012 | 78 | 5 | 0.0 | 3.5 | 0.00 | 0.58 | 0.58 | 84 | 1013.8 |
| 20260503222502 | 78 | 5 | 0.9 | 3.5 | 0.00 | 0.58 | 0.58 | 83 | 1013.7 |
| 20260503222005 | 79 | 5 | 0.9 | 4.3 | 0.00 | 0.58 | 0.58 | 83 | 1013.9 |
| 20260503221510 | 79 | 5 | 0.9 | 4.3 | 0.00 | 0.58 | 0.58 | 82 | 1013.9 |
| 20260503221006 | 79 | 5 | 0.9 | 4.3 | 0.00 | 0.58 | 0.58 | 81 | 1014.0 |
| 20260503220505 | 79 | 9 | 0.0 | 4.3 | 0.00 | 0.58 | 0.58 | 79 | 1013.9 |
| 20260503220010 | 80 | 10 | 1.7 | 7.0 | 0.00 | 0.58 | 0.58 | 79 | 1013.9 |
| 20260503215505 | 80 | 13 | 0.9 | 7.0 | 0.00 | 0.58 | 0.58 | 79 | 1013.9 |
| 20260503215005 | 80 | 24 | 2.6 | 7.0 | 0.00 | 0.58 | 0.58 | 79 | 1013.7 |
| 20260503214515 | 80 | 17 | 0.9 | 6.1 | 0.00 | 0.58 | 0.58 | 79 | 1013.7 |
| 20260503214003 | 80 | 19 | 1.7 | 6.1 | 0.00 | 0.58 | 0.58 | 79 | 1013.8 |
| 20260503213503 | 80 | 17 | 2.6 | 6.1 | 0.00 | 0.58 | 0.58 | 79 | 1013.6 |
| 20260503213016 | 80 | 20 | 2.6 | 7.0 | 0.00 | 0.58 | 0.58 | 80 | 1013.7 |
| 20260503212507 | 80 | 19 | 2.6 | 7.8 | 0.00 | 0.58 | 0.58 | 80 | 1013.7 |
| 20260503212007 | 80 | 25 | 3.5 | 8.7 | 0.00 | 0.58 | 0.58 | 80 | 1013.8 |
| 20260503211515 | 80 | 360 | 1.7 | 8.7 | 0.00 | 0.58 | 0.58 | 81 | 1013.8 |
| 20260503211003 | 80 | 32 | 1.7 | 7.8 | 0.00 | 0.58 | 0.58 | 80 | 1013.9 |
| 20260503210503 | 80 | 32 | 4.3 | 7.0 | 0.00 | 0.58 | 0.58 | 79 | 1014.1 |
| 20260503210014 | 80 | 44 | 1.7 | 5.2 | 0.00 | 0.58 | 0.58 | 80 | 1014.1 |
| 20260503205505 | 80 | 32 | 1.7 | 5.2 | 0.00 | 0.58 | 0.58 | 79 | 1014.1 |
| 20260503205006 | 80 | 32 | 2.6 | 5.2 | 0.00 | 0.58 | 0.58 | 79 | 1014.0 |
| 20260503204513 | 80 | 33 | 1.7 | 4.3 | 0.00 | 0.58 | 0.58 | 79 | 1014.0 |
| 20260503204006 | 80 | 33 | 0.9 | 4.3 | 0.00 | 0.58 | 0.58 | 78 | 1014.1 |
| 20260503203507 | 80 | 33 | 1.7 | 5.2 | 0.00 | 0.58 | 0.58 | 78 | 1014.1 |
| 20260503203021 | 80 | 33 | 2.6 | 7.0 | 0.00 | 0.58 | 0.58 | 78 | 1014.1 |
| 20260503202508 | 80 | 32 | 3.5 | 7.0 | 0.00 | 0.58 | 0.58 | 79 | 1014.1 |
| 20260503202009 | 80 | 37 | 2.6 | 7.0 | 0.00 | 0.58 | 0.58 | 78 | 1014.0 |
| 20260503201518 | 81 | 40 | 0.9 | 6.1 | 0.00 | 0.58 | 0.58 | 78 | 1014.2 |
| 20260503201007 | 81 | 40 | 2.6 | 6.1 | 0.00 | 0.58 | 0.58 | 78 | 1014.1 |
| 20260503200508 | 81 | 40 | 1.7 | 7.8 | 0.00 | 0.58 | 0.58 | 78 | 1013.9 |
| 20260503200016 | 81 | 35 | 2.6 | 7.8 | 0.00 | 0.58 | 0.58 | 78 | 1014.1 |
| 20260503195512 | 81 | 20 | 2.6 | 7.8 | 0.00 | 0.58 | 0.58 | 78 | 1014.1 |
| 20260503195007 | 81 | 28 | 3.5 | 7.8 | 0.00 | 0.58 | 0.58 | 78 | 1014.3 |
| 20260503194519 | 81 | 46 | 1.7 | 5.2 | 0.00 | 0.58 | 0.58 | 77 | 1014.3 |
| 20260503194008 | 81 | 44 | 0.9 | 5.2 | 0.00 | 0.58 | 0.58 | 77 | 1014.4 |
| 20260503193507 | 81 | 38 | 1.7 | 7.0 | 0.00 | 0.58 | 0.58 | 78 | 1014.4 |
| 20260503193031 | 81 | 22 | 2.6 | 7.0 | 0.00 | 0.58 | 0.58 | 77 | 1014.5 |
| 20260503192508 | 81 | 47 | 1.7 | 7.8 | 0.00 | 0.58 | 0.58 | 77 | 1014.5 |